#timestamp,LO_Frequency,Hit,StdDev 
1581620415.3,286047000.0,N
1581620435.1,286046998.9,N
1581620455.9,286047002.6,N
1581620475.7,286047002.5,N
1581620495.6,286047000.1,N
1581620515.4,286046998.6,N
1581620535.2,286046998.4,N
1581620555.1,286046998.4,N
1581620556.0,286046998.4,N
1581620575.8,286047000.5,N
1581620595.6,286047000.4,N
1581620615.5,286047000.9,N
1581620635.3,286047000.1,N
1581620655.2,286047002.7,N
1581620675.9,286047000.6,N
1581620695.7,286046998.2,N
1581620715.6,286046998.9,N
1581620735.4,286047000.9,N
1581620755.2,286046998.3,N
1581620775.1,286046997.0,N
1581620776.0,286046997.0,N
1581620795.8,286046999.1,N
1581620815.7,286046999.1,N
1581620835.5,286046999.0,N
1581620855.3,286046996.9,N
1581620875.2,286046997.0,N
1581620895.0,286046996.8,N
1581620895.9,286046996.8,N
1581620915.7,286046997.0,N
1581620935.6,286046996.5,N
1581620955.4,286046997.3,N
1581620975.3,286046998.9,N
1581620995.1,286046999.3,N
1581621015.8,286046998.7,N
1581621035.7,286046999.4,N
1581621055.5,286046996.7,N
1581621075.4,286046996.9,N
1581621095.2,286046996.7,N
1581621115.0,286046997.6,N
1581621115.9,286046997.6,N
1581621135.8,286046995.5,N
1581621155.6,286046995.4,N
1581621175.4,286046995.5,N
1581621195.3,286046996.1,N
1581621215.1,286046997.6,N
1581621235.9,286046997.3,N
1581621255.7,286046998.0,N
1581621275.5,286046997.8,N
1581621295.4,286046996.1,Y
1581621315.2,286046995.5,P
1581621335.1,286046997.3,N
1581621336.0,286046997.3,P
1581621355.8,286046997.9,N
1581621375.6,286046996.4,Y
1581621395.5,286046996.6,P
1581621415.3,286046997.0,P
1581621435.1,286046996.6,P
1581621455.9,286046999.5,N
1581621475.7,286046996.7,Y
1581621495.6,286047000.5,P
1581621515.4,286046998.5,N
1581621535.2,286046999.4,N
1581621555.1,286046996.9,N
1581621556.0,286046996.9,N
1581621575.8,286046996.4,N
1581621595.7,286046993.3,Y
1581621615.5,286046997.5,P
1581621635.3,286046997.5,P
1581621655.2,286046997.5,P
1581621675.0,286046997.0,Y
1581621675.9,286046997.0,P
1581621695.8,286046999.2,N
1581621715.6,286046998.2,N
1581621735.4,286046996.7,Y
1581621755.3,286047000.0,P
1581621775.1,286047000.2,N
1581621795.9,286047002.3,N
1581621815.7,286047002.1,N
1581621835.5,286046999.9,N
1581621855.4,286047000.8,N
1581621875.2,286046999.6,N
1581621895.0,286046998.9,N
1581621895.9,286046998.9,N
1581621915.8,286046999.1,N
1581621935.6,286046997.1,N
1581621955.5,286046996.9,N
1581621975.3,286046997.8,N
1581621995.1,286046999.4,N
1581622015.9,286046996.9,N
1581622035.7,286046995.5,N
1581622055.6,286046997.9,N
1581622075.4,286046996.0,N
1581622095.2,286046995.5,N
1581622115.1,286046997.3,N
1581622116.0,286046997.3,N
1581622135.8,286046996.6,N
1581622155.7,286046997.0,N
1581622175.5,286046998.9,N
1581622195.3,286046998.8,N
1581622215.2,286046996.5,N
1581622235.9,286046997.5,N
1581622255.7,286046996.9,N
1581622275.6,286046996.5,N
1581622295.4,286046997.3,N
1581622315.2,286046997.6,N
1581622335.1,286046996.3,N
1581622336.0,286046996.3,N
1581622355.8,286046993.7,Y
1581622375.7,286046998.0,P
1581622395.5,286046995.6,P
1581622415.3,286046996.1,P
1581622435.2,286046995.1,Y
1581622455.0,286046999.5,P
1581622455.9,286046999.5,N
1581622475.8,286047000.2,N
1581622495.6,286046999.7,N
1581622515.4,286047002.5,N
1581622535.3,286047001.8,N
1581622555.1,286047001.5,N
1581622575.9,286047003.1,N
1581622595.7,286047006.0,Y
1581622615.5,286047003.3,P
1581622635.4,286047003.5,N
1581622655.2,286047002.9,N
1581622675.1,286047003.2,N
1581622676.0,286047003.2,N
1581622695.8,286047006.0,Y
1581622715.6,286046999.8,P
1581622735.5,286047002.7,N
1581622755.3,286047002.4,N
1581622775.2,286047002.5,N
1581622795.0,286047002.2,N
1581622795.9,286047002.2,N
1581622815.7,286047001.3,N
1581622835.6,286046999.7,N
1581622855.4,286047001.5,N
1581622875.3,286047004.4,Y
1581622895.1,286047002.8,P
1581622915.9,286047002.5,P
1581622935.7,286047002.5,P
1581622955.5,286047002.1,Y
1581622975.4,286046998.9,P
1581622995.2,286046998.9,N
1581623015.1,286046998.1,N
1581623016.0,286046998.1,N
1581623035.8,286047000.8,N
1581623055.6,286047000.1,N
1581623075.5,286047000.3,N
1581623095.3,286046999.7,N
1581623115.2,286047000.0,N
1581623135.9,286047002.4,N
1581623155.7,286047002.5,N
1581623175.6,286047003.6,N
1581623195.4,286047001.7,N
1581623215.2,286047001.7,N
1581623235.1,286047001.5,N
1581623236.0,286047001.5,N
1581623255.8,286047001.5,N
1581623275.7,286047004.0,N
1581623295.5,286047003.5,N
1581623315.3,286047003.6,N
1581623335.2,286047003.4,N
1581623355.0,286047003.5,N
1581623355.9,286047003.5,N
1581623375.8,286047003.6,N
1581623395.6,286047003.2,N
1581623415.4,286047005.8,Y
1581623435.3,286047001.4,P
1581623455.1,286047000.9,P
1581623475.9,286047003.9,P
1581623495.7,286047001.8,N
1581623515.5,286047001.5,N
1581623535.4,286047002.5,N
1581623555.2,286047002.0,N
1581623575.0,286047002.0,N
1581623575.9,286047002.0,N
1581623595.8,286047001.5,N
1581623615.6,286047002.3,Y
1581623635.5,286046998.2,P
1581623655.3,286046999.9,N
1581623675.1,286046998.6,N
1581623695.9,286047001.1,N
1581623715.7,286046998.6,N
1581623735.5,286047002.8,N
1581623755.4,286047000.7,N
1581623775.2,286047000.0,N
1581623795.1,286046999.7,N
1581623796.0,286046999.7,N
1581623815.8,286046999.8,N
1581623835.6,286046999.9,N
1581623855.5,286047002.1,N
1581623875.3,286047003.0,N
1581623895.2,286047003.1,N
1581623915.9,286047003.7,N
1581623935.7,286047002.9,N
1581623955.6,286047003.1,N
1581623975.4,286047003.3,N
1581623995.2,286047003.1,N
